INSAT-3DR

Last updated on Sun Nov 16 2025 00:03:08 GMT+0000 (Coordinated Universal Time)

1 41752U 16054A 25319.46682860 -.00000070 00000+0 00000+0 0 9991 2 41752 0.1135 87.5605 0013807 179.8165 29.5069 1.00272472 33673
UTC large
Height (km)
Speed (km/s)
/
Latitude / Longitude
Inclination (degrees)
Orbital Period (minutes)
Azimuth
Elevation
Range (km)
Doppler Factor

Next 0 passes for location: London (51.5072 / 0.1276)

Sorry there are no passes over London.